• In Italy
  • List of Countries
  • For 7 days
  • Water Temperature
  • Satellite Maps
  • Weather Map
  • Weather Widgets
  • user-avatar
    Login

    Hourly Weather Bangalore

    Today, 22 November, Wednesday

    Time Temperature Precipitation Wind Pressure Humidity
    00:00 +21°C° 0 mm 2 mps 683 mmHg 93%
    01:00 +20°C° 0 mm 2 mps 683 mmHg 94%
    02:00 +20°C° 0 mm 2 mps 683 mmHg 95%
    03:00 +20°C° 0 mm 2 mps 683 mmHg 95%
    04:00 +20°C° 0 mm 2 mps 683 mmHg 95%
    05:00 +20°C° 0 mm 1 mps 683 mmHg 95%
    06:00 +21°C° 0 mm 2 mps 683 mmHg 89%
    07:00 +23°C° 0 mm 2 mps 684 mmHg 83%
    08:00 +24°C° 0 mm 3 mps 684 mmHg 77%
    09:00 +25°C° 0 mm 3 mps 684 mmHg 71%
    10:00 +27°C° 0 mm 4 mps 684 mmHg 66%
    11:00 +28°C° 0 mm 4 mps 685 mmHg 60%
    12:00 +29°C° 0.1 mm 4 mps 684 mmHg 59%
    13:00 +29°C° 0.1 mm 4 mps 683 mmHg 59%
    14:00 +29°C° 0.1 mm 4 mps 683 mmHg 58%
    15:00 +28°C° 0.1 mm 4 mps 683 mmHg 63%
    16:00 +27°C° 0.1 mm 4 mps 682 mmHg 67%
    17:00 +26°C° 0.1 mm 3 mps 682 mmHg 71%
    18:00 +25°C° 0.1 mm 3 mps 683 mmHg 74%
    19:00 +24°C° 0.1 mm 3 mps 683 mmHg 78%
    20:00 +22°C° 0.1 mm 3 mps 684 mmHg 81%
    21:00 +21°C° 0 mm 3 mps 684 mmHg 83%
    22:00 +20°C° 0 mm 3 mps 684 mmHg 85%
    23:00 +20°C° 0 mm 3 mps 684 mmHg 87%

    Tomorrow, 23 November, Thursday

    Time Temperature Precipitation Wind Pressure Humidity
    00:00 +19°C° 0 mm 2 mps 683 mmHg 87%
    01:00 +19°C° 0 mm 2 mps 683 mmHg 87%
    02:00 +19°C° 0 mm 2 mps 683 mmHg 87%
    03:00 +18°C° 0 mm 2 mps 683 mmHg 87%
    04:00 +18°C° 0 mm 2 mps 683 mmHg 86%
    05:00 +18°C° 0 mm 2 mps 683 mmHg 86%
    06:00 +19°C° 0 mm 2 mps 683 mmHg 80%
    07:00 +21°C° 0 mm 3 mps 684 mmHg 74%
    08:00 +22°C° 0 mm 3 mps 685 mmHg 68%
    09:00 +25°C° 0 mm 3 mps 685 mmHg 63%
    10:00 +26°C° 0 mm 4 mps 685 mmHg 57%
    11:00 +28°C° 0 mm 4 mps 685 mmHg 51%
    12:00 +29°C° 0 mm 4 mps 684 mmHg 50%
    13:00 +29°C° 0 mm 4 mps 684 mmHg 49%
    14:00 +30°C° 0 mm 3 mps 683 mmHg 49%
    15:00 +28°C° 0 mm 3 mps 683 mmHg 54%
    16:00 +27°C° 0 mm 3 mps 683 mmHg 60%
    17:00 +26°C° 0 mm 2 mps 683 mmHg 66%
    18:00 +25°C° 0.1 mm 2 mps 683 mmHg 71%
    19:00 +24°C° 0.1 mm 2 mps 684 mmHg 76%
    20:00 +23°C° 0.1 mm 2 mps 684 mmHg 80%
    21:00 +23°C° 0.1 mm 2 mps 684 mmHg 83%
    22:00 +21°C° 0.1 mm 2 mps 684 mmHg 86%
    23:00 +21°C° 0.1 mm 2 mps 684 mmHg 89%

    Day after tomorrow, 24 November, Friday

    Time Temperature Precipitation Wind Pressure Humidity
    00:00 +20°C° 0.1 mm 2 mps 684 mmHg 90%
    01:00 +20°C° 0.1 mm 2 mps 683 mmHg 91%
    02:00 +20°C° 0.1 mm 2 mps 683 mmHg 91%
    03:00 +20°C° 0 mm 2 mps 683 mmHg 92%
    04:00 +20°C° 0 mm 2 mps 683 mmHg 92%
    05:00 +20°C° 0 mm 1 mps 683 mmHg 92%
    06:00 +20°C° 0 mm 2 mps 684 mmHg 86%
    07:00 +23°C° 0 mm 2 mps 685 mmHg 80%
    08:00 +24°C° 0 mm 2 mps 685 mmHg 75%
    09:00 +25°C° 0 mm 3 mps 685 mmHg 69%
    10:00 +27°C° 0 mm 4 mps 685 mmHg 63%
    11:00 +28°C° 0 mm 4 mps 686 mmHg 57%
    12:00 +28°C° 0 mm 4 mps 685 mmHg 56%
    13:00 +28°C° 0 mm 4 mps 684 mmHg 55%
    14:00 +28°C° 0 mm 4 mps 683 mmHg 55%
    15:00 +27°C° 0 mm 4 mps 683 mmHg 59%
    16:00 +26°C° 0 mm 3 mps 683 mmHg 63%
    17:00 +25°C° 0 mm 3 mps 683 mmHg 68%
    18:00 +25°C° 0 mm 3 mps 684 mmHg 70%
    19:00 +24°C° 0 mm 2 mps 684 mmHg 73%
    20:00 +23°C° 0 mm 2 mps 685 mmHg 76%
    21:00 +21°C° 0 mm 2 mps 685 mmHg 79%
    22:00 +21°C° 0 mm 2 mps 685 mmHg 82%
    23:00 +20°C° 0 mm 2 mps 685 mmHg 85%

    25 November, Saturday

    Time Temperature Precipitation Wind Pressure Humidity
    00:00 +20°C° 0 mm 2 mps 684 mmHg 86%
    01:00 +20°C° 0 mm 2 mps 684 mmHg 88%
    02:00 +20°C° 0 mm 2 mps 683 mmHg 90%
    03:00 +19°C° 0 mm 2 mps 683 mmHg 91%
    04:00 +20°C° 0 mm 1 mps 683 mmHg 91%
    05:00 +20°C° 0 mm 1 mps 683 mmHg 92%
    06:00 +20°C° 0 mm 2 mps 684 mmHg 87%
    07:00 +21°C° 0 mm 2 mps 685 mmHg 82%
    08:00 +22°C° 0 mm 3 mps 686 mmHg 77%
    09:00 +24°C° 0 mm 3 mps 686 mmHg 69%
    10:00 +26°C° 0 mm 4 mps 686 mmHg 61%
    11:00 +27°C° 0 mm 4 mps 686 mmHg 53%
    12:00 +27°C° 0 mm 4 mps 685 mmHg 51%
    13:00 +28°C° 0 mm 4 mps 684 mmHg 50%
    14:00 +28°C° 0 mm 4 mps 684 mmHg 48%
    15:00 +27°C° 0 mm 4 mps 684 mmHg 54%
    16:00 +26°C° 0 mm 3 mps 684 mmHg 59%
    17:00 +25°C° 0 mm 3 mps 684 mmHg 65%
    18:00 +24°C° 0 mm 3 mps 684 mmHg 69%
    19:00 +22°C° 0 mm 3 mps 685 mmHg 73%
    20:00 +21°C° 0 mm 3 mps 685 mmHg 78%
    21:00 +20°C° 0 mm 2 mps 685 mmHg 80%
    22:00 +20°C° 0 mm 2 mps 685 mmHg 83%
    23:00 +19°C° 0 mm 2 mps 685 mmHg 86%

    26 November, Sunday

    Time Temperature Precipitation Wind Pressure Humidity
    00:00 +19°C° 0 mm 2 mps 684 mmHg 86%
    01:00 +19°C° 0 mm 2 mps 684 mmHg 86%
    02:00 +19°C° 0 mm 2 mps 683 mmHg 86%
    03:00 +18°C° 0 mm 2 mps 683 mmHg 85%
    04:00 +18°C° 0 mm 2 mps 683 mmHg 85%
    05:00 +18°C° 0 mm 2 mps 683 mmHg 85%
    06:00 +19°C° 0 mm 3 mps 684 mmHg 80%
    07:00 +20°C° 0 mm 3 mps 685 mmHg 75%
    08:00 +21°C° 0 mm 4 mps 686 mmHg 71%
    09:00 +22°C° 0 mm 4 mps 685 mmHg 65%
    10:00 +23°C° 0 mm 4 mps 685 mmHg 60%
    11:00 +25°C° 0 mm 4 mps 685 mmHg 54%
    12:00 +26°C° 0 mm 4 mps 684 mmHg 54%
    13:00 +26°C° 0 mm 4 mps 684 mmHg 54%
    14:00 +26°C° 0 mm 4 mps 683 mmHg 54%
    15:00 +25°C° 0 mm 4 mps 683 mmHg 58%
    16:00 +24°C° 0 mm 3 mps 683 mmHg 63%
    17:00 +22°C° 0 mm 3 mps 683 mmHg 67%
    18:00 +21°C° 0 mm 3 mps 683 mmHg 67%
    19:00 +21°C° 0 mm 3 mps 684 mmHg 68%
    20:00 +20°C° 0 mm 3 mps 684 mmHg 68%
    21:00 +20°C° 0 mm 3 mps 684 mmHg 67%
    22:00 +20°C° 0 mm 3 mps 684 mmHg 66%
    23:00 +19°C° 0 mm 3 mps 684 mmHg 66%

    27 November, Monday

    Time Temperature Precipitation Wind Pressure Humidity
    00:00 +19°C° 0 mm 4 mps 683 mmHg 66%
    01:00 +19°C° 0 mm 4 mps 682 mmHg 67%
    02:00 +19°C° 0 mm 4 mps 682 mmHg 67%
    03:00 +19°C° 0 mm 4 mps 682 mmHg 69%
    04:00 +19°C° 0 mm 5 mps 682 mmHg 71%
    05:00 +19°C° 0 mm 5 mps 682 mmHg 73%
    06:00 +20°C° 0 mm 5 mps 683 mmHg 75%
    07:00 +20°C° 0 mm 6 mps 683 mmHg 77%
    08:00 +21°C° 0 mm 6 mps 684 mmHg 79%
    09:00 +21°C° 0.1 mm 6 mps 684 mmHg 80%
    10:00 +21°C° 0.1 mm 7 mps 683 mmHg 80%
    11:00 +21°C° 0.1 mm 7 mps 683 mmHg 81%
    12:00 +21°C° 0.1 mm 6 mps 682 mmHg 82%
    13:00 +21°C° 0.1 mm 6 mps 682 mmHg 83%
    14:00 +20°C° 0.1 mm 6 mps 681 mmHg 84%
    15:00 +20°C° 0 mm 6 mps 681 mmHg 85%
    16:00 +20°C° 0 mm 5 mps 681 mmHg 85%
    17:00 +20°C° 0 mm 5 mps 681 mmHg 86%
    18:00 +20°C° 0 mm 6 mps 682 mmHg 87%
    19:00 +20°C° 0 mm 6 mps 682 mmHg 87%
    20:00 +20°C° 0 mm 6 mps 683 mmHg 88%
    21:00 +20°C° 0.1 mm 6 mps 682 mmHg 88%
    22:00 +21°C° 0.1 mm 7 mps 682 mmHg 88%
    23:00 +21°C° 0.1 mm 7 mps 682 mmHg 88%
    Show more